DO5DHA-11 Weather Reports


Display with metric or nautical units.
time (UTC)temp
F
wind
direction
speed
MPH
gust
MPH
rain 1hr
in
rain 24hr
in
rain mn
in
humidity
%
barometer
mb
20260506013905 55 157 0.0 0.0 0.00 0.00 0.00 82 1005.2
20260506013405 55 157 0.0 0.0 0.00 0.00 0.00 82 1005.4
20260506012905 55 157 0.0 0.0 0.00 0.00 0.00 82 1005.5
20260506012405 55 157 0.0 0.0 0.00 0.00 0.00 81 1005.5
20260506011905 55 157 0.0 0.0 0.00 0.00 0.00 81 1005.5
20260506011405 55 157 0.0 0.0 0.00 0.00 0.00 81 1005.5
20260506010905 55 157 0.0 0.0 0.00 0.00 0.00 81 1005.5
20260506010405 55 157 0.0 0.0 0.00 0.00 0.00 81 1005.7
20260506005905 55 157 0.0 0.0 0.00 0.00 0.00 81 1005.5
20260506005405 55 157 0.0 0.0 0.00 0.00 0.00 81 1005.5
20260506004905 56 157 0.0 0.0 0.00 0.00 0.00 81 1005.7
20260506004405 56 157 0.0 0.0 0.00 0.00 0.00 81 1005.7
20260506003905 56 157 0.0 0.0 0.00 0.00 0.00 81 1005.7
20260506003405 56 157 0.0 0.0 0.00 0.00 0.00 81 1005.9
20260506002905 56 157 0.0 0.0 0.00 0.00 0.00 81 1006.0
20260506002405 56 157 0.0 0.0 0.00 0.00 0.00 81 1006.0
20260506001905 56 157 0.0 0.0 0.00 0.00 0.00 80 1006.0
20260506001405 56 157 0.0 0.0 0.00 0.00 0.00 81 1006.0
20260506000905 56 202 0.0 0.0 0.00 0.00 0.00 81 1006.0
20260506000405 56 180 0.0 0.0 0.00 0.00 0.00 81 1006.0
20260505235905 57 180 0.0 0.0 0.00 0.00 0.00 81 1006.0
20260505235405 57 180 0.0 0.0 0.00 0.00 0.00 81 1006.0
20260505234905 57 180 0.0 0.0 0.00 0.00 0.00 80 1006.0
20260505234405 57 180 0.0 0.0 0.00 0.00 0.00 80 1006.0
20260505233905 57 180 0.0 0.0 0.00 0.00 0.00 80 1006.0
20260505233405 57 180 0.0 0.0 0.00 0.00 0.00 80 1006.0
20260505232905 57 180 0.0 0.0 0.00 0.00 0.00 80 1006.2
20260505232405 57 180 0.0 0.0 0.00 0.00 0.00 80 1006.2
20260505231905 57 180 0.0 0.0 0.00 0.00 0.00 80 1006.4
20260505231405 57 180 0.0 0.0 0.00 0.00 0.00 80 1006.4
20260505230905 57 180 0.0 0.0 0.00 0.00 0.00 80 1006.5
20260505230405 57 180 0.0 0.0 0.00 0.00 0.00 80 1006.4
20260505225905 57 180 0.0 0.0 0.00 0.00 0.00 80 1006.4
20260505225405 57 180 0.0 0.0 0.00 0.00 0.00 81 1006.4
20260505224905 57 180 0.0 0.0 0.00 0.00 0.00 81 1006.4
20260505224405 57 180 0.0 0.0 0.00 0.00 0.00 81 1006.4
20260505223905 57 202 0.0 0.0 0.00 0.00 0.00 80 1006.4
20260505223405 57 202 0.0 0.0 0.00 0.00 0.00 80 1006.4
20260505222905 57 180 0.0 0.0 0.00 0.00 0.00 80 1006.4
20260505222405 57 180 0.0 0.0 0.00 0.00 0.00 80 1006.2
20260505221905 57 202 0.0 0.0 0.00 0.00 0.00 80 1006.2
20260505221405 57 180 7.0 0.0 0.00 0.00 0.00 80 1006.2
20260505220905 57 180 0.0 0.0 0.00 0.00 0.00 80 1006.0
20260505220405 57 180 0.0 0.0 0.00 0.00 0.00 80 1006.0
20260505215905 57 180 0.0 0.0 0.00 0.00 0.00 80 1006.0
20260505215405 57 180 0.0 0.0 0.00 0.00 0.00 80 1006.4
20260505214905 57 157 0.0 0.0 0.00 0.00 0.00 80 1006.4
20260505214405 57 180 0.0 0.0 0.00 0.00 0.00 80 1006.2
20260505213905 57 180 0.0 0.0 0.00 0.00 0.00 80 1006.2
20260505213405 58 202 0.0 0.0 0.00 0.00 0.00 80 1006.2
20260505212905 58 180 0.0 0.0 0.00 0.00 0.00 80 1006.2
20260505212405 58 180 0.0 0.0 0.00 0.00 0.00 80 1006.2
20260505211905 58 180 0.0 0.0 0.00 0.00 0.00 80 1006.0
20260505211405 58 202 0.0 0.0 0.00 0.00 0.00 80 1006.0
20260505210905 58 202 0.0 0.0 0.00 0.00 0.00 80 1006.0
20260505210405 58 180 0.0 0.0 0.00 0.00 0.00 80 1006.4
20260505205905 58 180 0.0 0.0 0.00 0.00 0.00 80 1006.4
20260505205405 58 180 0.0 0.0 0.00 0.00 0.00 80 1006.4
20260505204905 58 202 0.0 0.0 0.00 0.00 0.00 80 1006.4
20260505204405 59 202 0.0 0.0 0.00 0.00 0.00 80 1006.4
20260505203905 59 202 0.0 0.0 0.00 0.00 0.00 80 1006.2
20260505203405 59 202 0.0 0.0 0.00 0.00 0.00 80 1006.2
20260505202905 59 202 0.0 0.0 0.00 0.00 0.00 80 1006.2
20260505202405 59 202 0.0 0.0 0.00 0.00 0.00 80 1006.2
20260505201905 59 202 0.0 0.0 0.00 0.00 0.00 80 1006.2
20260505201405 59 202 0.0 0.0 0.00 0.00 0.00 80 1006.2
20260505200905 59 202 0.0 0.0 0.00 0.00 0.00 79 1006.2
20260505200405 59 202 0.0 0.0 0.00 0.00 0.00 79 1006.0
20260505195905 59 202 0.0 0.0 0.00 0.00 0.00 79 1006.2
20260505195405 59 202 0.0 0.0 0.00 0.00 0.00 79 1006.0
20260505194905 59 202 0.0 0.0 0.00 0.00 0.00 79 1006.0
20260505194405 59 202 0.0 0.0 0.00 0.00 0.00 78 1006.0
20260505193905 59 202 0.0 0.0 0.00 0.00 0.00 78 1005.9
20260505193405 59 202 0.0 0.0 0.00 0.00 0.00 78 1005.7
20260505192905 59 202 0.0 0.0 0.00 0.00 0.00 78 1005.7
20260505192405 60 202 0.0 0.0 0.00 0.00 0.00 78 1006.0
20260505191905 60 202 0.0 0.0 0.00 0.00 0.00 78 1006.0
20260505191405 60 202 0.0 0.0 0.00 0.00 0.00 77 1005.9
20260505190905 60 202 0.0 0.0 0.00 0.00 0.00 76 1005.9
20260505190405 60 202 0.0 0.0 0.00 0.00 0.00 76 1005.9
20260505185905 60 202 0.0 0.0 0.00 0.00 0.00 76 1005.7
20260505185405 60 202 0.0 0.0 0.00 0.00 0.00 76 1005.7
20260505184905 60 202 0.0 0.0 0.00 0.00 0.00 75 1005.5
20260505184405 60 202 0.0 0.0 0.00 0.00 0.00 75 1005.5
20260505183905 60 202 0.0 0.0 0.00 0.00 0.00 75 1005.5
20260505183405 61 202 0.0 0.0 0.00 0.00 0.00 74 1005.9
20260505182905 61 202 0.0 0.0 0.00 0.00 0.00 74 1005.7
20260505182405 61 202 0.0 0.0 0.00 0.00 0.00 73 1005.7
20260505181905 61 202 0.0 0.0 0.00 0.00 0.00 73 1005.7
20260505181405 61 202 0.0 0.0 0.00 0.00 0.00 72 1005.7
20260505180905 62 202 0.0 0.0 0.00 0.00 0.00 72 1005.5
20260505180405 62 202 0.0 0.0 0.00 0.00 0.00 71 1005.5
20260505175905 62 202 0.0 0.0 0.00 0.00 0.00 72 1005.5
20260505175405 62 202 0.0 0.0 0.00 0.00 0.00 71 1005.5
20260505174905 62 202 0.0 0.0 0.00 0.00 0.00 71 1005.5
20260505174405 63 225 0.0 0.0 0.00 0.00 0.00 70 1005.5
20260505173905 63 225 0.0 0.0 0.00 0.00 0.00 70 1005.5
20260505173405 63 225 0.0 0.0 0.00 0.00 0.00 70 1005.4
20260505172905 63 225 0.0 0.0 0.00 0.00 0.00 70 1005.5
20260505172405 63 225 0.0 0.0 0.00 0.00 0.00 69 1005.5
20260505171905 63 157 0.0 0.0 0.00 0.00 0.00 69 1005.4
20260505171405 63 157 0.0 0.0 0.00 0.00 0.00 69 1005.5
20260505170905 63 157 0.0 0.0 0.00 0.00 0.00 69 1005.5
20260505170405 63 157 0.0 0.0 0.00 0.00 0.00 68 1005.5
20260505165905 64 157 0.0 0.0 0.00 0.00 0.00 68 1005.5
20260505165405 64 157 0.0 0.0 0.00 0.00 0.00 68 1005.5
20260505164905 64 157 0.0 0.0 0.00 0.00 0.00 68 1005.5
20260505164405 64 157 0.0 0.0 0.00 0.00 0.00 68 1005.5
20260505163905 64 157 0.0 0.0 0.00 0.00 0.00 68 1005.7
20260505163405 64 157 0.0 0.0 0.00 0.00 0.00 68 1005.7
20260505162905 64 157 0.0 0.0 0.00 0.00 0.00 68 1005.7
20260505162405 64 157 0.0 0.0 0.00 0.00 0.00 68 1005.7
20260505161905 64 157 0.0 0.0 0.00 0.00 0.00 68 1005.7
20260505161405 64 157 0.0 0.0 0.00 0.00 0.00 69 1005.9
20260505160905 64 157 0.0 0.0 0.00 0.00 0.00 69 1005.7
20260505160405 64 157 0.0 0.0 0.00 0.00 0.00 70 1005.9
20260505152905 63 180 0.0 0.0 0.00 0.00 0.00 71 1005.7
20260505152405 63 180 0.0 0.0 0.00 0.00 0.00 71 1006.0
20260505151905 63 180 0.0 0.0 0.00 0.00 0.00 72 1005.9
20260505151405 63 180 0.0 0.0 0.00 0.00 0.00 72 1006.0
20260505150905 63 180 0.0 0.0 0.00 0.00 0.00 71 1006.0
20260505150405 63 180 0.0 0.0 0.00 0.00 0.00 71 1006.0
20260505140405 63 180 0.0 0.0 0.00 0.00 0.00 71 1006.7
20260505124905 64 202 0.0 0.0 0.00 0.00 0.00 66 1006.9
20260505124405 64 157 0.0 0.0 0.00 0.00 0.00 65 1006.9
20260505123905 64 225 0.0 0.0 0.00 0.00 0.00 65 1006.7
20260505123405 64 202 0.0 0.0 0.00 0.00 0.00 65 1007.0
20260505122905 64 202 0.0 0.0 0.00 0.00 0.00 65 1007.0
20260505122405 64 202 0.0 0.0 0.00 0.00 0.00 64 1007.0
20260505121905 64 180 0.0 0.0 0.00 0.00 0.00 64 1006.9
20260505121405 65 180 0.0 0.0 0.00 0.00 0.00 64 1006.9
20260505120905 65 180 0.0 0.0 0.00 0.00 0.00 63 1007.0
20260505120405 65 180 0.0 0.0 0.00 0.00 0.00 63 1006.9
20260505115905 65 202 0.0 0.0 0.00 0.00 0.00 63 1007.0
20260505115405 65 202 0.0 0.0 0.00 0.00 0.00 63 1007.0
20260505114905 65 202 0.0 0.0 0.00 0.00 0.00 63 1007.0
20260505114405 64 180 0.0 0.0 0.00 0.00 0.00 63 1007.0
20260505113905 64 180 0.0 0.0 0.00 0.00 0.00 63 1007.0
20260505113405 64 180 0.0 0.0 0.00 0.00 0.00 63 1007.0
20260505112905 64 157 0.0 0.0 0.00 0.00 0.00 63 1007.0
20260505112405 64 157 0.0 0.0 0.00 0.00 0.00 63 1007.0
20260505111905 64 202 0.0 0.0 0.00 0.00 0.00 63 1007.0
20260505111405 64 180 0.0 0.0 0.00 0.00 0.00 62 1007.0
20260505110905 64 180 0.0 0.0 0.00 0.00 0.00 62 1007.0
20260505110405 64 180 0.0 0.0 0.00 0.00 0.00 62 1007.0
20260505101905 66 202 0.0 0.0 0.00 0.00 0.00 62 1007.0
20260505101405 66 225 0.0 0.0 0.00 0.00 0.00 63 1007.2
20260505100905 66 180 0.0 0.0 0.00 0.00 0.00 63 1007.2
20260505100405 66 180 0.0 0.0 0.00 0.00 0.00 64 1007.2
20260505095905 66 180 0.0 0.0 0.00 0.00 0.00 63 1007.2
20260505095405 66 180 0.0 0.0 0.00 0.00 0.00 62 1007.2
20260505094905 66 180 0.0 0.0 0.00 0.00 0.00 62 1007.2
20260505094405 66 180 3.0 0.0 0.00 0.00 0.00 62 1007.2
20260505093905 66 202 0.0 0.0 0.00 0.00 0.00 63 1007.0
20260505093405 66 225 0.0 0.0 0.00 0.00 0.00 62 1007.2
20260505092905 66 180 0.0 0.0 0.00 0.00 0.00 62 1007.2
20260505092405 65 180 0.0 0.0 0.00 0.00 0.00 61 1007.2
20260505091905 65 180 0.0 0.0 0.00 0.00 0.00 61 1007.2
20260505091405 65 202 0.0 0.0 0.00 0.00 0.00 61 1007.4
20260505090905 65 180 0.0 0.0 0.00 0.00 0.00 62 1007.5
20260505090405 65 180 0.0 0.0 0.00 0.00 0.00 62 1007.5
20260505085905 65 157 0.0 0.0 0.00 0.00 0.00 63 1007.5
20260505085405 65 157 0.0 0.0 0.00 0.00 0.00 63 1007.5
20260505084905 65 157 0.0 0.0 0.00 0.00 0.00 63 1007.7
20260505084405 65 157 0.0 0.0 0.00 0.00 0.00 63 1007.7
20260505083905 65 135 0.0 0.0 0.00 0.00 0.00 64 1007.7
20260505083405 65 112 0.0 0.0 0.00 0.00 0.00 64 1007.5
20260505082905 65 112 0.0 0.0 0.00 0.00 0.00 64 1007.7
20260505082405 65 67 0.0 0.0 0.00 0.00 0.00 65 1007.7
20260505081905 65 135 0.0 0.0 0.00 0.00 0.00 65 1007.7
20260505081405 64 135 0.0 0.0 0.00 0.00 0.00 67 1007.5
20260505080905 64 135 0.0 0.0 0.00 0.00 0.00 68 1007.7
20260505080405 63 135 0.0 0.0 0.00 0.00 0.00 69 1007.7
20260505075905 63 112 0.0 0.0 0.00 0.00 0.00 69 1007.9
20260505075405 62 112 0.0 0.0 0.00 0.00 0.00 68 1007.7
20260505074905 62 112 0.0 0.0 0.00 0.00 0.00 69 1008.0
20260505074405 62 112 0.0 0.0 0.00 0.00 0.00 69 1008.0
20260505073905 62 112 0.0 0.0 0.00 0.00 0.00 69 1008.0
20260505073405 62 112 0.0 0.0 0.00 0.00 0.00 70 1008.0
20260505072905 62 112 0.0 0.0 0.00 0.00 0.00 70 1008.0
20260505072405 61 112 0.0 0.0 0.00 0.00 0.00 71 1008.0
20260505071905 61 112 0.0 0.0 0.00 0.00 0.00 71 1008.0
20260505071405 60 112 0.0 0.0 0.00 0.00 0.00 71 1008.2
20260505070905 60 112 0.0 0.0 0.00 0.00 0.00 72 1008.2
20260505070405 59 112 0.0 0.0 0.00 0.00 0.00 72 1008.2
20260505065905 59 112 0.0 0.0 0.00 0.00 0.00 72 1008.2
20260505065405 59 112 0.0 0.0 0.00 0.00 0.00 72 1008.4
20260505064905 59 112 0.0 0.0 0.00 0.00 0.00 73 1008.4
20260505064405 58 112 0.0 0.0 0.00 0.00 0.00 73 1008.4
20260505063905 58 112 0.0 0.0 0.00 0.00 0.00 73 1008.4
20260505063405 58 112 0.0 0.0 0.00 0.00 0.00 73 1008.2
20260505062905 58 112 0.0 0.0 0.00 0.00 0.00 73 1008.2
20260505062405 58 112 0.0 0.0 0.00 0.00 0.00 73 1008.5
20260505061905 57 112 0.0 0.0 0.00 0.00 0.00 73 1008.5
20260505061405 57 112 0.0 0.0 0.00 0.00 0.00 74 1008.7
20260505060905 57 112 0.0 0.0 0.00 0.00 0.00 74 1008.7
20260505060405 57 112 0.0 0.0 0.00 0.00 0.00 74 1008.7
20260505055905 57 112 0.0 0.0 0.00 0.00 0.00 74 1008.7
20260505055405 57 112 0.0 0.0 0.00 0.00 0.00 74 1008.5
20260505054905 56 112 0.0 0.0 0.00 0.00 0.00 74 1008.7
20260505054405 56 112 0.0 0.0 0.00 0.00 0.00 74 1008.9
20260505053905 56 112 0.0 0.0 0.00 0.00 0.00 74 1008.9
20260505053405 56 112 0.0 0.0 0.00 0.00 0.00 74 1008.7
20260505052905 56 112 0.0 0.0 0.00 0.00 0.00 74 1008.9
20260505052405 56 45 0.0 0.0 0.00 0.00 0.00 74 1008.7
20260505051905 55 45 0.0 0.0 0.00 0.00 0.00 74 1008.7
20260505051405 55 45 0.0 0.0 0.00 0.00 0.00 74 1008.7
20260505050905 55 45 0.0 0.0 0.00 0.00 0.00 74 1008.5
20260505050405 55 180 0.0 0.0 0.00 0.00 0.00 75 1008.7
20260505041405 55 180 0.0 0.0 0.00 0.00 0.00 74 1008.7
20260505040905 56 180 0.0 0.0 0.00 0.00 0.00 73 1008.7
20260505040405 56 180 0.0 0.0 0.00 0.00 0.00 73 1008.7
20260505035905 56 180 0.0 0.0 0.00 0.00 0.00 73 1008.5
20260505035405 56 180 0.0 0.0 0.00 0.00 0.00 73 1008.7
20260505034905 56 180 0.0 0.0 0.00 0.00 0.00 73 1008.5
20260505034405 56 180 0.0 0.0 0.00 0.00 0.00 73 1008.7
20260505033905 56 180 0.0 0.0 0.00 0.00 0.00 73 1008.7
20260505033405 56 180 0.0 0.0 0.00 0.00 0.00 73 1008.5
20260505032905 56 180 0.0 0.0 0.00 0.00 0.00 73 1008.7
20260505032405 57 180 0.0 0.0 0.00 0.00 0.00 73 1008.5
20260505031905 57 180 0.0 0.0 0.00 0.00 0.00 73 1008.7
20260505031405 57 180 0.0 0.0 0.00 0.00 0.00 73 1008.7
20260505030905 57 180 0.0 0.0 0.00 0.00 0.00 73 1008.9
20260505030405 57 180 0.0 0.0 0.00 0.00 0.00 73 1009.0
20260505025905 57 180 0.0 0.0 0.00 0.00 0.00 73 1009.0
20260505025405 57 180 0.0 0.0 0.00 0.00 0.00 73 1009.0
20260505024905 57 180 0.0 0.0 0.00 0.00 0.00 73 1009.0
20260505024405 57 180 0.0 0.0 0.00 0.00 0.00 72 1009.0
20260505023905 57 180 0.0 0.0 0.00 0.00 0.00 72 1009.2
20260505023405 57 180 0.0 0.0 0.00 0.00 0.00 72 1009.2
20260505022905 57 180 0.0 0.0 0.00 0.00 0.00 72 1009.4
20260505022405 57 180 0.0 0.0 0.00 0.00 0.00 72 1009.4
20260505021905 57 180 0.0 0.0 0.00 0.00 0.00 72 1009.4
20260505021405 57 180 0.0 0.0 0.00 0.00 0.00 72 1009.4
20260505020905 57 180 0.0 0.0 0.00 0.00 0.00 72 1009.5
20260505020405 57 180 0.0 0.0 0.00 0.00 0.00 72 1009.5
20260505015905 57 180 0.0 0.0 0.00 0.00 0.00 71 1009.5
20260505015405 57 180 0.0 0.0 0.00 0.00 0.00 71 1009.7
20260505014905 57 180 0.0 0.0 0.00 0.00 0.00 71 1009.5
20260505014405 57 180 0.0 0.0 0.00 0.00 0.00 71 1009.7